Location: Centerville
(32.8776°N, 96.6203°W)
Time: 16:23:51
(UTC+00:00)

Cosmos 1842 - Pass Details

Date: 17 June 2021
Orbit: 519 x 537 km, 82.5° (Epoch: 26 July)

Event Time Altitude Azimuth Distance (km) Brightness Sun altitude
Rises 02:10:13 0° 172° (S) 2,662 6.4 -6.8°
Reaches altitude 10° 02:12:24 10° 165° (SSE) 1,778 5.5 -7.2°
Maximum altitude 02:16:08 44° 93° (E) 744 3.6 -7.9°
Drops below altitude 10° 02:19:54 10° 20° (NNE) 1,796 6.1 -8.5°
Sets 02:22:07 0° 14° (NNE) 2,692 7.1 -8.9°
